Regional Weather Roundup
Issued by NWS Green Bay, WI

Home | Current Version | Previous Version | Text Only | Print | Product List | Glossary On
Versions: 1 2 3 4 5 6 7 8 9 10 11 12 13 14 15 16 17 18 19 20 21 22 23 24 25 26 27 28 29 30 31 32 33 34 35 36 37 38 39 40 41 42 43 44 45 46 47 48 49 50
000
ASUS43 KGRB 301000
RWRGRB

NORTH-CENTRAL AND NORTHEAST WISCONSIN REGIONAL WEATHER ROUNDUP
NATIONAL WEATHER SERVICE GREEN BAY WI
500 AM CDT SAT JUL 30 2016

WIZ005-009-010>012-018-019-301100-
NORTH CENTRAL WISCONSIN

CITY           SKY/WX    TMP DP  RH WIND       PRES   REMARKS
IRONWOOD       CLOUDY    61  57  88 SW5       30.06R
MANITOWISH WTR NOT AVBL
ARBOR VITAE    NOT AVBL
EAGLE RIVER    NOT AVBL
LAND O LAKES   NOT AVBL
RHINELANDER    CLOUDY    56  54  93 CALM      30.10R
PHILLIPS       CLEAR     55  55  99 CALM      30.08S
ANTIGO         NOT AVBL
TOMAHAWK       PTCLDY    48  47  97 CALM      30.09S
MERRILL        CLEAR     52  52 100 CALM      30.08S
$$

WIZ013-073-301100-
NORTHEAST WISCONSIN

CITY           SKY/WX    TMP DP  RH WIND       PRES   REMARKS
IRON MOUNTAIN  CLEAR     53  50  89 NW6       30.08S
MARINETTE      PTCLDY   N/A N/A N/A N5          N/A
$$

WIZ017-030-035>037-045-301100-
CENTRAL WISCONSIN

CITY           SKY/WX    TMP DP  RH WIND       PRES   REMARKS
MEDFORD        NOT AVBL
WAUSAU         CLOUDY    59  55  87 CALM      30.05R
MOSINEE        CLOUDY    59  55  88 NE8       30.06S
MARSHFIELD     MOCLDY    61  55  81 NE6       30.05R
WISC RAPIDS    CLOUDY    63  56  78 NE5       30.05R
STEVENS POINT  NOT AVBL
WAUPACA        NOT AVBL
SHAWANO        NOT AVBL
CLINTONVILLE   CLOUDY    61  55  82 NE6       30.04S
WAUTOMA        NOT AVBL
$$

WIZ038-039-048-051-301100-
FOX VALLEY

CITY           SKY/WX    TMP DP  RH WIND       PRES   REMARKS
NWS GREEN BAY  CLEAR     59  59 100 N7        30.03R
APPLETON       CLOUDY    61  55  82 N6        30.01S
OSHKOSH        CLOUDY    68  61  78 CALM      30.01S
FOND DU LAC    CLOUDY    67  61  81 NE6       30.01S
$$

WIZ022-050-052-301100-
EAST CENTRAL WISCONSIN

CITY           SKY/WX    TMP DP  RH WIND       PRES   REMARKS
EPHRAIM        FAIR      62  56  82 CALM      30.05S
WASHINGTON ISL NOT AVBL
STURGEON BAY   CLOUDY    64  60  87 NE7       30.05R
MANITOWOC      NOT AVBL
SHEBOYGAN      CLEAR     61  58  90 N3        30.01S
$$

LMZ563-521-522-541>543-301100-
LAKESHORE

STATION/POSITION TIME  TEMP    WIND        PRES    VSBY  WAVE
                       AIR SEA DIR/SP/G                  HT/PER
                 (UTC) (F)     (DEG/KT/KT) (MB)    (MI)  (FT/S)
SHEBOYGAN LKSHOR 0900   69     100/  9/ 10 1016.0S
KEWAUNEE LKSHORE 0900   66     350/  1/  2 1016.2R
ALGOMA MARINA    0913             CALM       N/A
NORTHPORT PIER   0900   70     100/  7/ 10 1017.3S
N MID LAKE BUOY  0850   69 69  100/  8/ 10 1017.1S         1/ 3
SISTER BAY LKSHO 0921   64     120/  3/  6   N/A
CHAMBERS ISLAND  0900   69      60/  6/  8 1017.3S
MENOMINEE LKSHOR 0900   67      10/ 11/ 12 1016.3F
$$




USA.gov is the U.S. government's official web portal to all federal, state and local government web resources and services.